Location: Usti nad Orlici
(49.9830°N, 16.4000°E)
Time: 14:13:19
(UTC+02:00)

ISS - Pass Details

Date: 26 March 2019
Orbit: 408 x 410 km, 51.6° (Epoch: 24 April)

Event Time Altitude Azimuth Distance (km) Brightness Sun altitude
Rises 20:59:48 0° 275° (W) 2,336 0.9 -25.0°
Reaches altitude 10° 21:01:55 10° 278° (W) 1,475 -0.2 -25.3°
Enters shadow 21:03:36 27° 287° (WNW) 822 -1.7 -25.5°
